#timestamp,LO_Frequency,Hit,StdDev 
1509922815.1,286046965.0,N
1509922835.9,286046965.1,N
1509922855.7,286046969.0,N
1509922875.5,286046964.6,N
1509922895.4,286046964.3,Y
1509922915.2,286046985.6,P
1509922935.0,286046989.7,N
1509922936.0,286046989.7,N
1509922955.8,286046989.8,N
1509922975.6,286046986.5,N
1509922995.5,286046985.3,Y
1509923015.3,286047004.4,P
1509923035.1,286047007.5,N
1509923055.9,286047010.9,N
1509923075.7,286047010.2,N
1509923095.5,286047009.6,N
1509923115.4,286047007.7,N
1509923135.2,286047009.4,N
1509923155.0,286047010.3,N
1509923155.9,286047010.3,N
1509923175.8,286047008.5,N
1509923195.6,286047009.5,N
1509923215.4,286047009.1,N
1509923235.3,286047009.0,N
1509923255.1,286047010.1,N
1509923256.0,286047010.1,N
1509923275.8,286047009.4,N
1509923295.7,286047012.3,N
1509923315.5,286047011.3,N
1509923335.3,286047011.7,N
1509923355.2,286047010.6,N
1509923375.9,286047010.0,N
1509923395.7,286047011.8,N
1509923415.6,286047005.0,N
1509923435.4,286047006.7,N
1509923455.2,286047012.8,N
1509923475.1,286047016.1,Y
1509923476.0,286047016.1,P
1509923495.8,286047012.1,P
1509923515.6,286047010.7,P
1509923535.5,286047011.5,Y
1509923555.3,286047004.2,P
1509923575.1,286047006.8,N
1509923595.9,286047004.7,N
1509923615.7,286047007.2,N
1509923635.5,286047009.2,Y
1509923655.4,286046996.7,P
1509923675.2,286046997.7,N
1509923695.0,286046993.6,N
1509923695.9,286046993.6,N
1509923715.8,286046998.8,N
1509923735.6,286047003.9,N
1509923755.4,286047002.4,N
1509923775.3,286047002.2,N
1509923795.1,286047007.2,N
1509923815.8,286047004.9,N
1509923835.7,286047004.7,N
1509923855.5,286047003.5,N
1509923875.3,286047002.9,N
1509923895.2,286047004.4,N
1509923915.0,286046999.9,N
1509923915.9,286046999.9,N
1509923935.7,286047000.0,N
1509923955.6,286047003.0,N
1509923975.4,286047001.9,N
1509923995.2,286047002.7,N
1509924015.1,286047004.4,N
1509924016.0,286047004.4,N
1509924035.8,286047005.6,N
1509924055.6,286047009.0,N
1509924075.5,286047007.2,N
1509924095.3,286047006.0,N
1509924115.1,286047003.4,N
1509924135.9,286047006.9,N
1509924155.7,286047006.8,N
1509924175.5,286047006.2,N
1509924195.4,286047006.2,N
1509924215.2,286047007.8,N
1509924235.0,286047005.3,N
1509924235.9,286047005.3,N
1509924255.8,286047001.9,N
1509924275.6,286047000.1,N
1509924295.4,286047001.1,N
1509924315.3,286046993.7,N
1509924335.1,286046989.6,Y
1509924355.9,286046985.2,P
1509924375.7,286046983.0,N
1509924395.5,286046983.1,N
1509924415.4,286046980.9,N
1509924435.2,286046989.4,N
1509924455.0,286046993.1,N
1509924455.9,286046993.1,N
1509924475.8,286046993.1,N
1509924495.6,286046993.1,N
1509924515.4,286046988.9,N
1509924535.3,286046992.7,N
1509924555.1,286046991.6,N
1509924575.8,286046988.3,N
1509924595.7,286046987.3,N
1509924615.5,286046992.5,N
1509924635.3,286046992.3,N
1509924655.2,286046992.4,N
1509924675.9,286046992.7,N
1509924695.7,286046992.2,N
1509924715.6,286046991.7,N
1509924735.4,286046994.4,N
1509924755.2,286046993.9,N
1509924775.1,286046989.6,N
1509924776.0,286046989.6,N
1509924795.8,286046985.6,Y
1509924815.6,286046995.3,P
1509924835.5,286047001.0,N
1509924855.3,286047002.7,N
1509924875.1,286046999.8,N
1509924895.9,286047000.1,N
1509924915.7,286047000.5,N
1509924935.5,286047000.3,N
1509924955.4,286046998.8,N
1509924975.2,286046995.6,N
1509924995.0,286046998.2,N
1509924996.0,286046998.2,N
1509925015.8,286046998.8,N
1509925035.6,286046996.9,N
1509925055.5,286046998.7,N
1509925075.3,286047001.8,N
1509925095.1,286047003.2,N
1509925115.9,286047006.0,N
1509925135.7,286047002.8,N
1509925155.5,286047001.6,N
1509925175.3,286047006.8,N
1509925195.2,286047006.7,N
1509925215.0,286047008.7,N
1509925215.9,286047008.7,N
1509925235.8,286047003.3,N
1509925255.6,286047005.2,N
1509925275.4,286047007.3,N
1509925295.3,286047010.7,N
1509925315.1,286047011.5,N
1509925316.0,286047011.5,N
1509925335.8,286047014.3,N
1509925355.7,286047014.4,N
1509925375.5,286047015.0,N
1509925395.3,286047018.4,Y
1509925415.2,286047012.4,P
1509925435.9,286047010.7,N
1509925455.7,286047008.2,N
1509925475.6,286047007.6,N
1509925495.4,286047010.0,Y
1509925515.2,286046999.3,P
1509925535.1,286046999.1,N
1509925536.0,286046999.1,N
1509925555.8,286047000.8,N
1509925575.6,286047004.4,N
1509925595.5,286046999.8,N
1509925615.3,286046998.9,N
1509925635.1,286046999.1,N
1509925655.9,286046997.7,N
1509925675.7,286046999.2,N
1509925695.5,286046998.8,N
1509925715.4,286046998.6,N
1509925735.2,286047002.4,N
1509925755.0,286047001.2,N
1509925755.9,286047001.2,N
1509925775.8,286046997.0,N
1509925795.6,286046996.7,N
1509925815.4,286047001.0,N
1509925835.3,286046998.4,N
1509925855.1,286047000.9,N
1509925856.0,286047000.9,N
1509925875.8,286047000.7,N
1509925895.7,286046999.3,N
1509925915.5,286046995.4,N
1509925935.3,286046996.2,N
1509925955.2,286046995.6,N
1509925975.9,286046994.9,N
1509925995.7,286046997.3,N
1509926015.6,286046999.0,N
1509926035.4,286046999.1,N
1509926055.2,286047000.8,N
1509926075.1,286046996.6,N
1509926076.0,286046996.6,N
1509926095.8,286046996.7,N
1509926115.6,286047002.7,N
1509926135.5,286047004.3,N
1509926155.3,286047000.2,N
1509926175.1,286047001.5,N
1509926195.9,286046999.5,N
1509926215.7,286046994.6,N
1509926235.5,286046989.9,Y
1509926255.4,286046984.1,P
1509926275.2,286046979.1,N
1509926295.0,286046981.7,N
1509926295.9,286046981.7,N
1509926315.8,286046975.8,Y
1509926335.6,286046993.5,P
1509926355.4,286046993.1,N
1509926375.3,286046991.9,N
1509926395.1,286046992.6,N
